Wind_Speed
17 17 16 16 15 14 14 14 13 13 13 13 13 12 12 12 11 9 9 10 11 10 10 9 9 9 10 10 10 10 10 12 12 13 13 14 15 15 16 16 17 17
18 18 18 17 16 16 15 15 14 14 13 14 13 13 13 12 11 10 10 11 11 10 10 9 9 10 10 11 11 11 12 13 14 14 15 15 16 16 17 17 18 18
19 19 19 18 18 17 16 15 14 14 14 14 15 14 13 12 12 11 11 11 11 10 10 10 10 11 11 12 13 13 14 15 15 15 16 17 17 18 18 19 20 20
19 19 19 19 19 18 17 16 15 15 15 15 15 14 13 13 13 12 11 11 11 10 10 11 11 12 12 13 14 14 15 16 17 17 18 18 19 19 19 20 21 21
19 19 19 19 19 18 17 16 16 15 16 16 16 15 14 14 13 13 12 11 10 10 10 11 12 13 13 13 14 14 15 16 18 19 19 19 19 19 20 21 21 22
19 19 19 19 18 17 17 17 16 15 15 17 16 16 15 14 13 12 12 11 10 10 11 12 13 13 13 13 14 15 16 17 18 19 20 20 21 21 21 22 22 23
17 15 16 17 17 17 18 17 16 15 16 17 17 15 15 14 12 12 12 11 11 11 11 12 12 13 14 14 15 15 17 18 19 20 21 22 21 21 21 21 22 22
15 12 12 14 16 18 19 18 17 17 17 17 16 14 14 13 12 12 12 11 11 11 11 12 13 14 15 15 16 17 17 18 19 19 20 21 21 22 22 22 22 22
16 15 16 17 19 20 19 18 17 16 15 15 15 14 14 14 13 12 11 11 11 11 12 14 15 15 15 16 17 18 18 18 18 18 19 20 21 23 23 23 23 24
17 19 20 21 21 20 17 15 15 14 15 15 15 16 17 16 15 13 12 12 12 13 14 14 15 16 16 16 17 17 18 18 20 21 21 21 21 22 23 24 23 23
19 20 22 23 21 18 17 17 17 18 19 18 18 19 19 18 17 16 15 14 14 14 15 15 15 16 15 15 16 17 18 19 21 22 21 19 19 20 21 21 21 20
21 20 21 24 23 20 19 19 19 21 22 20 20 20 19 18 18 17 16 16 15 16 16 17 17 16 15 16 16 17 19 20 21 20 19 17 18 19 18 16 17 17
20 17 16 18 20 21 20 18 18 20 21 20 19 20 20 19 17 17 18 17 17 17 17 17 18 16 15 16 17 17 19 21 21 20 18 17 17 18 17 15 15 16
19 17 15 16 18 19 18 16 16 17 18 18 19 21 23 21 19 18 18 18 18 18 18 17 17 15 14 16 17 18 19 20 20 19 17 16 16 17 16 15 14 15
20 19 18 18 18 17 16 15 15 16 17 17 18 21 23 22 19 18 18 19 18 18 18 17 16 15 14 14 17 18 18 18 17 17 16 16 16 15 15 14 13 13
21 20 20 20 18 17 16 15 17 18 19 21 23 23 20 18 17 17 19 19 18 17 17 17 17 17 16 14 15 17 17 16 15 15 15 15 14 14 14 13 12 12
22 22 22 22 21 19 17 16 18 21 24 26 25 21 17 16 18 18 18 17 16 16 16 16 16 16 15 15 16 17 16 15 15 14 14 13 11 11 11 11 10 10
23 23 23 23 22 21 19 17 18 22 25 23 19 17 17 18 18 17 16 16 15 15 15 15 15 15 15 16 16 16 16 15 14 13 11 10 10 10 10 9 9 9
23 23 22 22 22 22 21 21 22 23 22 19 17 17 18 17 15 15 16 15 15 15 15 15 15 15 16 16 16 15 14 13 11 10 9 8 9 9 9 9 9 9
21 22 22 21 22 23 23 23 24 23 21 18 17 17 16 16 16 16 15 15 16 16 15 14 14 16 16 15 14 13 12 11 10 9 9 8 8 8 8 9 10 10
19 21 22 22 23 24 24 24 24 22 20 17 15 14 15 15 15 16 16 16 16 15 14 13 15 15 14 13 12 11 10 10 9 9 9 8 8 9 9 10 11 12
18 20 22 23 24 25 24 23 21 19 16 14 12 13 15 14 15 16 17 16 16 14 14 14 15 14 12 10 10 10 9 9 9 9 9 9 10 10 10 11 12 13
18 21 24 24 23 22 20 18 17 16 17 16 14 14 15 16 16 17 16 16 15 14 14 14 13 12 10 10 10 9 9 9 9 10 10 11 11 11 11 12 13 14
21 23 23 21 19 17 16 16 15 16 17 18 17 16 16 17 17 15 15 15 14 13 12 11 11 10 10 10 10 10 9 10 11 11 12 13 13 13 13 14 16 16
24 21 18 18 17 16 16 16 15 16 17 18 18 17 17 17 17 15 14 14 12 11 10 10 10 10 10 10 11 11 11 11 12 13 14 14 15 15 15 17 19 19
20 17 14 14 16 17 15 14 15 16 17 18 18 18 17 16 16 15 14 12 11 11 10 11 11 11 11 11 12 12 12 13 14 15 15 16 17 17 17 19 21 22
Wind_Direction
235 236 237 238 238 237 234 230 230 231 230 228 222 217 218 221 223 222 224 231 236 236 238 243 250 259 269 276 281 283 284 285 286 287 287 288 288 289 290 291 291 291
232 234 235 235 235 234 230 227 228 230 230 229 224 219 218 221 224 223 225 232 238 240 243 248 256 266 275 283 285 285 283 282 284 285 285 285 286 287 288 289 290 289
228 230 231 232 233 232 228 225 227 229 229 226 222 219 219 221 226 228 229 235 241 246 251 256 265 272 278 282 283 283 283 284 285 285 284 285 285 285 286 287 288 287
223 226 228 228 229 229 228 226 225 225 225 224 220 218 219 223 228 233 234 237 242 248 256 264 271 275 276 278 280 282 283 283 283 282 281 282 283 284 285 286 286 285
220 223 226 227 228 228 227 225 222 222 223 222 219 218 221 226 230 235 238 240 244 250 260 268 273 276 278 279 281 284 285 284 284 284 283 283 283 284 286 286 286 285
220 220 223 226 228 230 230 225 219 220 224 225 225 223 225 230 233 238 243 246 250 256 263 269 274 278 281 281 284 289 291 290 289 288 289 288 288 287 287 288 289 288
232 229 232 235 232 230 230 227 221 221 225 229 231 231 232 234 236 242 249 253 257 261 264 270 276 279 281 281 284 289 292 293 292 292 292 292 291 291 289 289 289 288
239 238 242 243 238 233 230 227 226 226 228 231 234 237 239 241 242 244 250 252 255 260 267 273 277 278 279 280 283 288 292 294 293 292 292 292 293 292 290 289 288 288
224 224 225 225 228 232 233 233 235 236 241 245 247 247 247 246 247 249 252 255 258 264 270 275 277 278 278 281 285 290 294 295 293 291 290 291 292 291 290 289 288 288
221 224 226 226 226 228 231 238 245 245 246 249 252 256 256 257 257 258 258 262 266 269 271 271 273 275 277 282 287 291 294 294 292 290 288 288 291 291 290 291 292 292
227 231 235 236 234 231 227 229 238 243 243 244 246 250 255 260 263 262 262 265 267 269 271 270 269 270 276 282 287 289 291 290 290 290 290 292 296 294 292 293 296 297
234 238 241 239 235 236 234 229 234 241 245 248 249 248 247 252 260 264 264 264 264 265 270 272 274 277 281 284 284 286 287 287 289 293 298 304 302 297 294 296 300 301
235 238 241 236 231 235 241 239 239 244 249 254 256 254 250 247 253 260 263 264 266 269 273 276 279 284 288 288 287 286 287 288 292 296 301 306 303 299 299 302 305 307
234 239 243 242 238 240 244 246 245 246 251 252 252 255 253 247 246 252 259 264 266 270 276 279 280 283 288 290 289 289 288 288 290 294 298 302 304 305 306 305 309 311
236 242 246 247 247 246 246 246 245 245 245 243 247 251 248 243 242 246 253 258 260 266 271 271 271 272 275 279 281 283 284 284 287 292 297 302 305 307 308 309 311 311
238 241 243 247 250 252 251 250 247 246 245 244 247 249 249 250 251 249 250 253 256 261 264 264 266 269 273 277 278 279 281 284 289 295 299 304 307 309 311 313 314 311
237 239 242 246 249 252 256 254 250 250 249 248 249 251 255 258 254 249 248 250 252 256 260 266 270 273 279 284 283 282 286 292 297 300 302 304 308 312 313 314 314 313
236 238 241 246 248 250 253 251 250 251 250 250 252 256 255 250 245 246 249 252 257 259 261 266 271 276 282 282 281 284 290 296 299 302 306 307 309 314 316 316 318 320
235 237 238 240 242 244 244 245 249 251 250 249 249 248 248 245 243 246 249 254 259 260 260 264 272 278 279 279 282 287 291 295 296 301 310 313 313 315 317 320 322 325
229 231 232 233 235 237 240 245 251 251 250 247 241 239 242 243 246 251 253 254 256 257 259 264 269 272 272 275 281 285 288 293 298 306 313 314 312 313 316 319 321 322
219 223 225 227 230 235 240 244 247 248 248 245 239 239 244 245 248 254 256 254 255 257 259 261 263 265 267 272 277 280 287 296 303 308 309 307 307 308 311 314 317 320
214 218 223 226 230 236 240 240 242 246 253 257 250 245 249 254 258 259 256 255 256 255 254 256 259 263 267 272 277 283 291 298 301 301 300 298 300 303 308 312 316 319
221 222 226 229 231 235 242 246 248 251 255 258 254 247 249 252 254 253 252 251 250 247 247 252 259 264 270 276 280 284 289 292 292 292 293 295 297 302 309 312 313 317
233 230 231 234 235 236 243 249 250 251 252 255 255 253 254 253 251 251 248 245 243 243 244 251 259 264 270 273 276 280 282 285 288 289 292 295 297 303 310 310 308 312
236 236 236 237 237 234 235 237 241 247 252 255 256 257 257 257 256 254 247 242 242 243 246 252 258 262 266 268 271 276 280 285 288 290 292 294 297 302 308 310 308 309
243 255 252 247 246 241 236 237 242 248 250 251 254 255 254 254 254 251 245 241 242 243 246 253 257 259 263 266 270 275 281 284 286 288 290 294 297 300 304 307 307 307
Height
5916 5917 5917 5918 5918 5918 5919 5920 5920 5921 5922 5922 5922 5923 5923 5924 5925 5926 5926 5926 5926 5927 5927 5927 5928 5928 5928 5928 5928 5928 5928 5928 5928 5928 5927 5927 5927 5927 5926 5926 5925 5925
5913 5914 5915 5916 5916 5916 5917 5918 5918 5919 5920 5920 5921 5921 5922 5922 5923 5924 5924 5924 5925 5926 5926 5926 5927 5927 5927 5927 5927 5927 5926 5926 5926 5926 5926 5925 5925 5925 5924 5924 5923 5923
5911 5912 5913 5914 5914 5915 5915 5916 5917 5917 5918 5918 5919 5920 5921 5921 5921 5922 5922 5923 5924 5924 5925 5925 5925 5926 5926 5925 5925 5925 5925 5924 5924 5924 5924 5923 5923 5922 5922 5921 5920 5920
5908 5910 5911 5912 5913 5913 5914 5915 5915 5916 5916 5916 5917 5918 5919 5919 5920 5920 5921 5922 5922 5923 5923 5924 5924 5924 5924 5924 5923 5923 5923 5922 5922 5922 5921 5921 5920 5920 5919 5919 5918 5917
5905 5907 5909 5910 5911 5912 5912 5913 5914 5914 5914 5915 5915 5916 5917 5917 5918 5919 5919 5920 5921 5922 5922 5922 5922 5922 5922 5922 5921 5921 5921 5920 5920 5919 5919 5919 5918 5918 5917 5916 5915 5914
5903 5905 5907 5909 5910 5911 5911 5912 5912 5912 5913 5913 5914 5915 5915 5916 5917 5917 5918 5919 5920 5920 5920 5920 5920 5920 5919 5919 5919 5919 5918 5918 5918 5917 5916 5916 5916 5915 5914 5914 5913 5911
5906 5908 5910 5910 5909 5909 5910 5910 5911 5911 5911 5913 5913 5914 5915 5915 5916 5916 5917 5918 5918 5918 5918 5918 5918 5918 5917 5917 5917 5917 5917 5916 5916 5915 5915 5914 5913 5913 5912 5911 5910 5909
5907 5909 5911 5910 5909 5908 5908 5909 5910 5910 5911 5912 5913 5913 5914 5915 5915 5915 5915 5916 5916 5916 5916 5916 5915 5915 5915 5915 5915 5915 5915 5914 5914 5913 5913 5912 5911 5911 5909 5908 5907 5906
5903 5904 5904 5904 5904 5906 5908 5910 5910 5911 5912 5913 5913 5913 5914 5914 5914 5914 5914 5915 5914 5914 5914 5913 5913 5912 5912 5912 5912 5912 5912 5912 5912 5911 5910 5910 5909 5909 5907 5906 5904 5903
5901 5901 5901 5901 5901 5904 5908 5911 5911 5911 5911 5911 5912 5913 5913 5914 5914 5913 5913 5913 5912 5912 5911 5911 5910 5909 5909 5909 5909 5909 5909 5909 5908 5908 5907 5906 5906 5907 5906 5904 5903 5902
5899 5900 5900 5901 5901 5903 5906 5908 5908 5907 5907 5908 5909 5909 5910 5912 5912 5912 5911 5910 5909 5908 5908 5907 5907 5907 5907 5907 5907 5907 5907 5906 5906 5905 5905 5904 5903 5903 5903 5902 5901 5900
5897 5898 5898 5898 5899 5901 5903 5904 5905 5905 5904 5905 5906 5907 5907 5909 5910 5910 5908 5907 5906 5905 5904 5905 5905 5906 5906 5907 5907 5906 5905 5904 5904 5903 5902 5901 5900 5900 5899 5898 5897 5897
5894 5895 5896 5896 5898 5899 5900 5902 5903 5903 5903 5904 5906 5906 5906 5906 5906 5907 5906 5905 5904 5903 5903 5904 5905 5905 5906 5907 5906 5904 5903 5902 5902 5901 5900 5899 5899 5898 5897 5896 5895 5894
5892 5893 5894 5895 5896 5897 5898 5900 5902 5902 5902 5902 5903 5903 5902 5902 5902 5903 5903 5902 5902 5901 5902 5903 5904 5905 5904 5904 5903 5902 5901 5901 5900 5899 5898 5898 5898 5897 5896 5895 5893 5892
5889 5891 5892 5893 5894 5895 5896 5897 5899 5899 5899 5899 5899 5899 5898 5898 5899 5899 5899 5899 5899 5899 5898 5899 5900 5901 5902 5902 5901 5900 5900 5899 5898 5897 5897 5897 5896 5894 5894 5892 5891 5891
5887 5889 5890 5890 5891 5892 5893 5894 5895 5895 5895 5894 5894 5894 5896 5896 5895 5895 5895 5896 5896 5897 5896 5895 5896 5896 5897 5898 5899 5899 5898 5897 5896 5895 5895 5894 5893 5892 5891 5890 5890 5890
5884 5886 5887 5888 5889 5890 5890 5891 5890 5890 5888 5888 5889 5892 5894 5893 5891 5892 5893 5894 5894 5894 5894 5893 5893 5893 5894 5894 5895 5895 5895 5894 5893 5892 5892 5891 5891 5890 5889 5889 5888 5888
5881 5882 5884 5885 5886 5887 5887 5887 5886 5884 5883 5884 5888 5890 5890 5889 5890 5891 5892 5892 5893 5892 5892 5892 5892 5891 5891 5891 5892 5892 5892 5891 5890 5890 5889 5889 5889 5888 5888 5887 5887 5886
5877 5878 5880 5881 5882 5883 5884 5883 5881 5880 5881 5883 5886 5887 5887 5888 5890 5891 5892 5892 5891 5891 5891 5891 5891 5890 5890 5890 5890 5889 5889 5889 5888 5888 5887 5887 5886 5886 5886 5885 5885 5884
5873 5875 5876 5878 5879 5879 5879 5879 5878 5878 5880 5881 5882 5884 5886 5887 5887 5888 5888 5889 5889 5889 5889 5889 5888 5889 5889 5889 5888 5887 5887 5886 5886 5886 5885 5885 5885 5885 5884 5884 5883 5882
5871 5872 5873 5874 5875 5875 5875 5875 5875 5876 5877 5878 5880 5883 5884 5884 5884 5884 5885 5886 5886 5886 5886 5886 5887 5887 5887 5887 5886 5885 5884 5884 5883 5883 5883 5883 5883 5883 5883 5882 5881 5880
5869 5869 5869 5869 5869 5870 5871 5872 5874 5875 5876 5877 5879 5881 5881 5881 5882 5882 5882 5882 5883 5883 5884 5885 5885 5885 5884 5884 5883 5882 5882 5881 5881 5881 5881 5882 5882 5882 5881 5880 5879 5878
5866 5865 5864 5864 5865 5867 5870 5872 5874 5874 5874 5875 5877 5878 5878 5879 5879 5879 5879 5880 5880 5881 5883 5883 5882 5882 5881 5881 5880 5880 5880 5879 5879 5880 5880 5880 5880 5880 5879 5878 5876 5875
5863 5861 5861 5863 5865 5867 5869 5871 5871 5871 5870 5871 5872 5874 5875 5875 5875 5875 5875 5876 5877 5878 5879 5879 5879 5879 5879 5878 5878 5878 5878 5878 5878 5878 5878 5878 5878 5877 5876 5875 5873 5873
5861 5861 5862 5863 5864 5865 5866 5868 5868 5867 5867 5868 5869 5870 5871 5871 5871 5871 5872 5873 5874 5875 5875 5876 5876 5876 5876 5876 5876 5876 5877 5877 5876 5876 5876 5876 5875 5875 5874 5872 5870 5870
5860 5862 5864 5865 5865 5865 5866 5867 5867 5866 5866 5867 5867 5868 5869 5869 5869 5870 5870 5871 5872 5872 5873 5873 5874 5874 5874 5874 5874 5875 5875 5875 5874 5874 5874 5873 5872 5872 5871 5870 5868 5867